Location: Pine Mountain State Resort Park
(36.7364°N, 83.7376°W)
Time: 20:43:58
(UTC-04:00)

Tiangong 2 - Visible Passes

Search period start: 23 May 2018 00:00
Search period end: 02 June 2018 00:00
Orbit: 382 x 385 km, 42.8° (Epoch: 23 May)

Date Brightness Start Highest point End Pass type
(mag) Time Alt. Az. Time Alt. Az. Time Alt. Az.
23 May 2.8 22:42:12 10° W 22:45:06 33° NNW 22:46:40 20° NE visible
24 May 2.2 21:42:09 10° W 21:45:12 45° NNW 21:48:15 10° ENE visible
24 May 3.3 23:19:38 10° WNW 23:22:08 25° N 23:22:08 25° N visible
25 May 3.1 22:19:36 10° WNW 22:22:22 27° N 22:25:08 10° NE visible
25 May 4.2 23:56:43 10° NW 23:57:22 14° NW 23:57:22 14° NW visible
26 May 2.8 21:19:30 10° W 21:22:24 33° NNW 21:25:18 10° NE visible
26 May 2.9 22:56:52 10° NW 22:59:37 26° N 23:00:16 24° NNE visible
27 May 3.1 21:56:55 10° WNW 21:59:37 25° N 22:02:19 10° ENE visible
27 May 3.5 23:33:46 10° WNW 23:35:16 23° NW 23:35:16 23° NW visible
28 May 2.7 22:33:59 10° NW 22:36:51 31° N 22:38:02 23° NE visible
29 May 3.0 21:34:07 10° NW 21:36:51 26° N 21:39:36 10° ENE visible
29 May 2.4 23:10:47 10° WNW 23:12:57 39° NW 23:12:57 39° NW visible
30 May 2.1 22:11:00 10° WNW 22:14:01 41° NNE 22:15:41 21° ENE visible
30 May 4.3 23:47:47 10° W 23:47:52 11° W 23:47:52 11° W visible
31 May 1.3 22:47:49 10° WNW 22:50:36 62° WSW 22:50:36 62° WSW visible
01 Jun 1.3 21:47:58 10° WNW 21:51:06 64° NNE 21:53:21 17° ESE visible
01 Jun 4.0 23:25:14 10° W 23:25:32 12° W 23:25:32 12° W visible
